Location: Newcastle Observatory
(43.9158°N, 78.5831°W)
Time: 17:29:59
(UTC-04:00)

Amateur Radio Satellites - All Passes

Search period start: 16 September 2014 16:59
Search period end: 17 September 2014 16:59
Location: Newcastle Observatory, 43.9158°N, 78.5831°W

Satellite Date Start Highest point End Downlink Frequencies (MHz)
Time Altitude Azimuth
Uosat F 16 Sep 17:18:13 17:22:57 43° 261° (W) 17:27:43 435.120 FM
Hamsat 16 Sep 17:29:09 17:32:50 27° 68° (ENE) 17:36:31 145.90 MHz
Saudisat 1A 16 Sep 17:34:11 17:36:41 15° 110° (ESE) 17:39:11 436.775 MHz
AO-7 16 Sep 17:37:21 17:45:01 40° 262° (W) 17:52:44 29.400 - 29.500 MHz
JAS-2 16 Sep 17:52:07 17:57:18 55° 71° (ENE) 18:02:21 435.800 - 435.900 CW/SSB, 435.910 FM
OPAL 16 Sep 18:05:33 18:10:45 72° 105° (ESE) 18:15:52 ?
MaSat-1 16 Sep 18:10:25 18:13:42 22° 49° (NE) 18:16:37 437.345 MHz
STRAND 1 16 Sep 18:43:12 18:45:01 12° 88° (E) 18:46:50 ?
Hamsat 16 Sep 19:04:53 19:08:42 30° 265° (W) 19:12:33 145.90 MHz
Saudisat 1A 16 Sep 19:11:22 19:15:44 65° 307° (NW) 19:20:09 436.775 MHz
JAS-2 16 Sep 19:39:13 19:42:49 18° 268° (W) 19:46:22 435.800 - 435.900 CW/SSB, 435.910 FM
SO-67 16 Sep 19:44:46 19:48:11 63° 259° (W) 19:51:38 435.3500 MHz FM
OPAL 16 Sep 19:45:42 19:49:03 18° 303° (WNW) 19:52:22 ?
MaSat-1 16 Sep 19:47:04 19:50:33 31° 253° (WSW) 19:53:35 437.345 MHz
KITSAT 1 16 Sep 19:48:23 19:55:29 36° 108° (ESE) 20:02:36 435.175 FM
HO-68 16 Sep 20:11:21 20:17:35 34° 60° (ENE) 20:23:49 435.675 MHz FM
Sapphire 16 Sep 20:15:34 20:17:11 11° 29° (NNE) 20:18:48 437.095 MHz 1200 baud AX-25 AFSK
STRAND 1 16 Sep 20:19:43 20:24:53 87° 285° (WNW) 20:30:01 ?
AO-40 16 Sep 20:40:46 02:13:49 38° 183° (S) 10:05:24 Beacon 2401.320
UKube-1 16 Sep 20:40:55 20:43:38 17° 62° (ENE) 20:46:22 145.840 MHz, 145.915 MHz
PCSat 16 Sep 20:41:53 20:45:17 16° 37° (NE) 20:48:39 145.825 MHz
Saudisat 1A 16 Sep 20:54:08 20:56:11 13° 328° (NNW) 20:58:16 436.775 MHz
KITSAT 1 16 Sep 21:42:33 21:50:31 59° 309° (NW) 21:58:31 435.175 FM
FUNcube-1 16 Sep 21:43:47 21:47:05 21° 65° (ENE) 21:50:26 145.950 - 145.970 MHz USB
Sapphire 16 Sep 21:56:52 22:02:05 44° 52° (NE) 22:07:16 437.095 MHz 1200 baud AX-25 AFSK
HO-68 16 Sep 21:58:06 22:05:00 52° 259° (W) 22:11:59 435.675 MHz FM
STRAND 1 16 Sep 22:01:04 22:03:17 13° 303° (WNW) 22:05:31 ?
Oscar 11 16 Sep 22:01:35 22:05:56 75° 75° (ENE) 22:10:19 145.825 FM, Beacon 2401.500 USB
UKube-1 16 Sep 22:15:12 22:19:26 53° 259° (W) 22:23:41 145.840 MHz, 145.915 MHz
PCSat 16 Sep 22:24:11 22:29:39 76° 58° (ENE) 22:35:03 145.825 MHz
SO-50 16 Sep 22:25:59 22:26:54 11° 107° (ESE) 22:27:49 436.795 FM
FUNcube-1 16 Sep 23:19:04 23:23:11 41° 262° (W) 23:27:27 145.950 - 145.970 MHz USB
Sapphire 16 Sep 23:40:40 23:45:19 30° 250° (WSW) 23:49:57 437.095 MHz 1200 baud AX-25 AFSK
Oscar 11 16 Sep 23:41:38 23:42:38 11° 272° (W) 23:43:39 145.825 FM, Beacon 2401.500 USB
KITSAT 1 16 Sep 23:42:00 23:47:49 21° 334° (NNW) 23:53:39 435.175 FM
SO-50 17 Sep 00:02:12 00:06:41 89° 305° (NW) 00:11:19 436.795 FM
PCSat 17 Sep 00:09:08 00:12:24 16° 256° (WSW) 00:15:38 145.825 MHz
UOSAT-12 17 Sep 00:19:55 00:22:09 14° 108° (ESE) 00:24:24 437.025 FM, 437.400 FM
Oscar 19 17 Sep 01:25:18 01:26:40 11° 87° (E) 01:28:01 437.125 CW, 437.150 USB
KITSAT 1 17 Sep 01:42:46 01:46:59 15° 5° (N) 01:51:11 435.175 FM
SO-50 17 Sep 01:44:58 01:47:56 17° 325° (NW) 01:50:57 436.795 FM
UOSAT-12 17 Sep 01:57:01 02:01:39 78° 306° (NW) 02:06:23 437.025 FM, 437.400 FM
Saudisat 1A 17 Sep 01:57:50 02:01:22 23° 41° (NE) 02:04:53 436.775 MHz
Oscar 16 17 Sep 02:01:09 02:05:28 26° 94° (E) 02:09:45 437.025 USB, Beacon 2401.1428
ITAMSAT 1 17 Sep 02:38:17 02:42:29 24° 94° (E) 02:46:39 435.822 SSB
AO-Echo 17 Sep 02:38:33 02:42:38 27° 95° (E) 02:46:47 ?
Uribyol 2 17 Sep 02:43:05 02:47:34 28° 95° (E) 02:52:02 436.500 FM
JAS-1B 17 Sep 02:45:11 02:50:18 31° 95° (E) 02:55:16 435.800 - 435.900 CW/SSB
TMSAT-1 17 Sep 02:50:17 02:51:12 10° 86° (E) 02:52:06 436.925 FM
Oscar 19 17 Sep 03:01:31 03:06:44 88° 104° (ESE) 03:11:54 437.125 CW, 437.150 USB
AO-27 17 Sep 03:11:54 03:16:58 49° 100° (E) 03:22:00 436.795 MHz FM
Saudisat 1A 17 Sep 03:36:55 03:41:14 53° 240° (WSW) 03:45:31 436.775 MHz
KITSAT 1 17 Sep 03:38:59 03:45:43 28° 34° (NE) 03:52:24 435.175 FM
UOSAT-12 17 Sep 03:39:43 03:42:36 16° 326° (NW) 03:45:30 437.025 FM, 437.400 FM
Oscar 16 17 Sep 03:40:06 03:44:58 42° 291° (WNW) 03:49:47 437.025 USB, Beacon 2401.1428
OPAL 17 Sep 03:44:41 03:48:34 22° 59° (ENE) 03:52:28 ?
AO-7 17 Sep 03:47:24 03:50:12 12° 85° (E) 03:52:59 29.400 - 29.500 MHz
Gurwin Techsat 1B 17 Sep 03:47:39 03:52:50 50° 100° (E) 03:57:58 435.225 FM
ISS 17 Sep 04:04:40 04:07:41 32° 139° (SE) 04:10:42 145.800 FM
AO-Echo 17 Sep 04:17:07 04:21:28 36° 291° (WNW) 04:25:55 ?
ITAMSAT 1 17 Sep 04:17:13 04:22:10 45° 291° (WNW) 04:27:07 435.822 SSB
Uribyol 2 17 Sep 04:22:18 04:27:08 39° 292° (WNW) 04:31:56 436.500 FM
TMSAT-1 17 Sep 04:26:34 04:31:55 83° 104° (ESE) 04:37:13 436.925 FM
JAS-1B 17 Sep 04:35:47 04:41:07 37° 295° (WNW) 04:46:15 435.800 - 435.900 CW/SSB
Oscar 19 17 Sep 04:42:48 04:45:20 14° 303° (WNW) 04:47:52 437.125 CW, 437.150 USB
AO-27 17 Sep 04:52:05 04:56:10 24° 297° (WNW) 05:00:14 436.795 MHz FM
RS-15 17 Sep 05:01:34 05:12:12 56° 114° (ESE) 05:22:41 29.354 - 29.394 USB, Beacon 29.352 USB
OPAL 17 Sep 05:21:58 05:27:02 56° 257° (WSW) 05:32:11 ?
Uosat F 17 Sep 05:24:10 05:29:04 51° 100° (E) 05:33:57 435.120 FM
Gurwin Techsat 1B 17 Sep 05:28:19 05:32:28 24° 297° (WNW) 05:36:36 435.225 FM
KITSAT 1 17 Sep 05:34:07 05:42:16 87° 58° (ENE) 05:50:20 435.175 FM
AO-7 17 Sep 05:36:17 05:44:33 66° 105° (ESE) 05:52:45 29.400 - 29.500 MHz
ISS 17 Sep 05:41:10 05:44:21 41° 337° (NNW) 05:47:33 145.800 FM
STRAND 1 17 Sep 05:59:39 06:03:27 22° 62° (ENE) 06:07:15 ?
Oscar 10/S400 17 Sep 06:00:53 06:10:34 10° 257° (WSW) 06:21:07 145.825 - 145.975 CW/USB, Beacon 145.810 USB
TMSAT-1 17 Sep 06:08:11 06:11:08 15° 302° (WNW) 06:14:05 436.925 FM
JAS-2 17 Sep 06:42:39 06:48:17 46° 99° (E) 06:54:36 435.800 - 435.900 CW/SSB, 435.910 FM
Hamsat 17 Sep 06:48:45 06:52:51 43° 98° (E) 06:56:52 145.90 MHz
SO-50 17 Sep 06:52:35 06:56:16 21° 39° (NE) 06:59:58 436.795 FM
Uosat F 17 Sep 07:03:45 07:07:30 22° 298° (WNW) 07:11:15 435.120 FM
RS-15 17 Sep 07:14:10 07:24:44 50° 318° (NW) 07:35:20 29.354 - 29.394 USB, Beacon 29.352 USB
ISS 17 Sep 07:19:02 07:21:40 21° 357° (N) 07:24:19 145.800 FM
AO-7 17 Sep 07:29:46 07:36:48 32° 305° (NW) 07:43:49 29.400 - 29.500 MHz
KITSAT 1 17 Sep 07:31:03 07:36:38 21° 258° (WSW) 07:42:12 435.175 FM
STRAND 1 17 Sep 07:37:20 07:42:16 52° 260° (W) 07:47:16 ?
Hamsat 17 Sep 08:25:31 08:28:29 19° 295° (WNW) 08:31:26 145.90 MHz
JAS-2 17 Sep 08:28:14 08:33:14 31° 294° (WNW) 08:38:44 435.800 - 435.900 CW/SSB, 435.910 FM
SO-50 17 Sep 08:32:31 08:37:18 70° 238° (WSW) 08:42:08 436.795 FM
SO-67 17 Sep 08:39:55 08:43:21 63° 285° (WNW) 08:46:45 435.3500 MHz FM
UOSAT-12 17 Sep 08:45:54 08:49:40 23° 40° (NE) 08:53:23 437.025 FM, 437.400 FM
ISS 17 Sep 08:56:07 08:59:06 29° 17° (NNE) 09:02:05 145.800 FM
HO-68 17 Sep 09:24:25 09:30:30 29° 94° (E) 09:36:33 435.675 MHz FM
RS-15 17 Sep 09:31:53 09:40:32 26° 351° (N) 09:49:18 29.354 - 29.394 USB, Beacon 29.352 USB
MaSat-1 17 Sep 09:32:44 09:37:44 69° 114° (ESE) 09:42:42 437.345 MHz
Oscar 11 17 Sep 09:49:50 09:51:41 12° 89° (E) 09:53:30 145.825 FM, Beacon 2401.500 USB
UKube-1 17 Sep 10:02:30 10:05:58 23° 95° (E) 10:09:25 145.840 MHz, 145.915 MHz
UOSAT-12 17 Sep 10:25:32 10:30:13 62° 239° (WSW) 10:34:49 437.025 FM, 437.400 FM
ISS 17 Sep 10:32:43 10:36:01 63° 216° (SW) 10:39:19 145.800 FM
FUNcube-1 17 Sep 11:06:38 11:10:54 35° 97° (E) 11:15:07 145.950 - 145.970 MHz USB
MaSat-1 17 Sep 11:11:15 11:15:00 20° 312° (NW) 11:18:40 437.345 MHz
HO-68 17 Sep 11:11:34 11:18:34 58° 293° (WNW) 11:25:33 435.675 MHz FM
Oscar 11 17 Sep 11:23:58 11:28:18 64° 286° (WNW) 11:32:35 145.825 FM, Beacon 2401.500 USB
UKube-1 17 Sep 11:38:17 11:42:15 35° 291° (WNW) 11:46:12 145.840 MHz, 145.915 MHz
RS-15 17 Sep 11:47:53 11:57:28 32° 26° (NNE) 12:07:16 29.354 - 29.394 USB, Beacon 29.352 USB
Sapphire 17 Sep 12:40:43 12:45:18 29° 109° (ESE) 12:49:55 437.095 MHz 1200 baud AX-25 AFSK
Oscar 19 17 Sep 12:42:18 12:46:05 21° 62° (ENE) 12:49:53 437.125 CW, 437.150 USB
FUNcube-1 17 Sep 12:43:18 12:47:07 26° 294° (WNW) 12:50:55 145.950 - 145.970 MHz USB
AO-27 17 Sep 12:55:44 12:57:55 13° 56° (ENE) 13:00:07 436.795 MHz FM
HO-68 17 Sep 13:01:52 13:04:49 13° 313° (NW) 13:07:46 435.675 MHz FM
PCSat 17 Sep 13:07:13 13:12:26 52° 115° (ESE) 13:17:42 145.825 MHz
Oscar 16 17 Sep 13:19:16 13:24:10 44° 69° (ENE) 13:29:05 437.025 USB, Beacon 2401.1428
JAS-1B 17 Sep 13:29:53 13:37:42 41° 66° (ENE) 13:44:22 435.800 - 435.900 CW/SSB
Gurwin Techsat 1B 17 Sep 13:33:42 13:36:16 14° 57° (ENE) 13:38:50 435.225 FM
AO-Echo 17 Sep 13:53:01 13:57:27 40° 69° (ENE) 14:01:50 ?
ITAMSAT 1 17 Sep 13:57:32 14:02:21 42° 68° (ENE) 14:07:12 435.822 SSB
RS-15 17 Sep 14:00:40 14:11:49 80° 54° (NE) 14:23:23 29.354 - 29.394 USB, Beacon 29.352 USB
Uribyol 2 17 Sep 14:02:14 14:07:11 49° 70° (ENE) 14:12:10 436.500 FM
TMSAT-1 17 Sep 14:10:48 14:14:40 21° 62° (ENE) 14:18:34 436.925 FM
Oscar 19 17 Sep 14:19:54 14:25:00 57° 259° (W) 14:30:09 437.125 CW, 437.150 USB
Sapphire 17 Sep 14:23:21 14:28:31 45° 308° (NW) 14:33:44 437.095 MHz 1200 baud AX-25 AFSK
AO-27 17 Sep 14:31:28 14:36:38 85° 75° (ENE) 14:41:51 436.795 MHz FM
AO-7 17 Sep 14:46:44 14:53:01 25° 51° (NE) 14:59:17 29.400 - 29.500 MHz
PCSat 17 Sep 14:51:30 14:56:08 28° 314° (NW) 15:00:48 145.825 MHz
Oscar 16 17 Sep 14:59:27 15:03:41 25° 266° (W) 15:07:56 437.025 USB, Beacon 2401.1428
Uosat F 17 Sep 15:04:02 15:05:47 12° 56° (ENE) 15:07:33 435.120 FM
Gurwin Techsat 1B 17 Sep 15:10:09 15:15:27 88° 75° (ENE) 15:20:48 435.225 FM
JAS-1B 17 Sep 15:19:46 15:28:10 48° 261° (W) 15:35:19 435.800 - 435.900 CW/SSB
AO-Echo 17 Sep 15:32:38 15:36:23 23° 266° (W) 15:40:06 ?
Oscar 10/S400 17 Sep 15:33:03 15:47:30 23° 145° (SE) 16:03:19 145.825 - 145.975 CW/USB, Beacon 145.810 USB
ITAMSAT 1 17 Sep 15:37:44 15:41:59 26° 266° (W) 15:46:17 435.822 SSB
Uribyol 2 17 Sep 15:42:57 15:46:55 22° 267° (W) 15:50:55 436.500 FM
TMSAT-1 17 Sep 15:48:59 15:54:10 57° 259° (W) 15:59:24 436.925 FM
Sapphire 17 Sep 16:11:43 16:13:24 11° 331° (NNW) 16:15:05 437.095 MHz 1200 baud AX-25 AFSK
RS-15 17 Sep 16:14:02 16:23:06 30° 256° (WSW) 16:32:30 29.354 - 29.394 USB, Beacon 29.352 USB
AO-27 17 Sep 16:14:47 16:16:49 12° 272° (W) 16:18:51 436.795 MHz FM
AO-7 17 Sep 16:36:31 16:44:51 87° 251° (WSW) 16:53:12 29.400 - 29.500 MHz
Uosat F 17 Sep 16:38:46 16:43:46 82° 74° (ENE) 16:48:47 435.120 FM
Gurwin Techsat 1B 17 Sep 16:54:10 16:56:08 12° 273° (W) 16:58:07 435.225 FM
